www.pogodaiklimat.ru

Погода и климат >> Архив погоды >> Индия >> Deesa


ПОГОДА в Deesa

  • Прогноз погоды в Deesa
  • Монитор погоды в Deesa
  • Климат города

АРХИВ ПОГОДЫ в Deesa

Время (UTC), дата Ветер
(напр.,м/с)
 
Видим.   Явления Облачность Т
(С)
Тd
(С)
f
(%)
Тe
(С)
Тes
(С)
Комфортность P
(гПа)
Po
(гПа)
Тmin
(С)
Tmax
(С)
R
(мм)
R24
(мм)
S
(см)
03 12.12 СВ 2 4000 м мгла ясно +17.2 +11.7 70 +18 +19 1016.7 1017.0 +15.8
06 12.12 СВ 3 4000 м ясно +24.4 +10.4 41 +25 +34 комфорт 1017.0 1017.0
09 12.12 СВ 3 4000 м ясно +27.4 +6.6 27 +27 +34 жарко 1014.1 1014.0
12 12.12 С 2 4000 м ясно +25.6 +5.2 27 +25 +25 комфорт 1014.2 1014.0 +27.8
03 13.12 СВ 2 4000 м мгла ясно +14.6 +9.1 70 +14 +15 1020.8 1021.0 +12.4
06 13.12 СВ 6 4000 м ясно +23.0 +6.2 34 +24 +27 комфорт 1021.5 1022.0
09 13.12 С 4 4000 м ясно +25.8 +0.8 19 +24 +29 комфорт 1018.2 1018.0
12 13.12 СВ 4 4000 м ясно +23.0 +3.8 29 +23 +23 комфорт 1018.1 1018.0 +25.9
03 14.12 СВ 3 4000 м ясно +11.8 +4.8 62 +11 +12 1023.0 1023.0 +10.1
06 14.12 С 3 4000 м ясно +22.0 +4.6 32 +22 +30 комфорт 1023.2 1023.0
09 14.12 С 4 4000 м ясно +24.8 +1.7 22 +24 +29 комфорт 1019.3 1019.0
12 14.12 С 3 4000 м ясно +22.6 +5.0 32 +23 +23 комфорт 1019.1 1019.0 +25.1
03 15.12 СВ 2 4000 м ясно +10.8 +4.1 63 +10 +11 1022.6 1023.0 +9.2
06 15.12 СВ 3 4000 м ясно +21.6 +5.1 34 +22 +29 комфорт 1021.8 1022.0
09 15.12 С 3 4000 м ясно +25.0 +4.8 27 +24 +31 комфорт 1018.8 1019.0
12 15.12 С 2 4000 м ясно +23.2 +4.8 30 +23 +23 комфорт 1017.9 1018.0 +25.3
03 16.12 СВ 2 4000 м мгла ясно +9.6 +5.7 77 +9 +10 1022.1 1022.0 +7.6
06 16.12 СВ 2 4000 м 8/0 2000 м
[Ac trans]
+20.0 +6.5 41 +22 +27 комфорт 1022.6 1023.0
09 16.12 СВ 2 4000 м 8/0 2000 м
[Ac trans]
+22.8 +4.7 31 +23 +27 комфорт 1019.3 1019.0
12 16.12 СЗ 1 4000 м 8/0 2000 м
[Ac trans]
+22.4 +8.0 40 +24 +24 комфорт 1017.7 1018.0 +23.5
03 17.12 штиль 0 4000 м 8/0 2000 м
[Ac trans]
+13.4 +7.7 68 +13 +14 1020.6 1021.0 +11.9
06 17.12 СВ 2 4000 м 8/0 2000 м
[Ac trans]
+22.0 +5.7 35 +23 +28 комфорт 1020.5 1021.0
09 17.12 СВ 2 4000 м 4/0 2000 м
[Ac trans]
+25.8 +3.7 24 +25 +31 комфорт 1017.6 1018.0
12 17.12 С 1 4000 м 1/0 2000 м
[Ac trans]
+24.0 +4.9 29 +24 +24 комфорт 1016.3 1016.0 +27.0
03 18.12 СВ 1 4000 м ясно +10.6 +4.4 65 +10 +12 1021.0 1021.0 +8.4
06 18.12 В 2 4000 м ясно +22.4 +5.2 33 +23 +32 комфорт 1020.7 1021.0
09 18.12 4000 м ясно +26.0 +6.5 29 1016.9 1017.0
12 18.12 С 1 4000 м ясно +24.4 +8.4 36 +25 +25 комфорт 1015.7 1016.0 +27.9

 

Местоположение метеостанции Deesa (Gujarat, Индия): широта 24.20 долгота 72.20 высота над уровнем моря 136 м.

В архиве по умолчанию представлена погода в Deesa за последнюю неделю. Архивные данные за месяц целиком и за предыдущие месяцы, начиная с января 2011 года, Вы можете получить, выбрав интересующий диапазон дат из раскрывающегося списка и нажав кнопку "Ввод!".


*Определитесь, кто Вы:
робот инопланетянин человек

Внимание! Время в таблицах - всемирное. Для получения местного времени необходимо прибавить поправку, которая в Deesa равна 5.5 ч.

Смотрите также архив погоды в соседних городах и на ближайших метеорологических станциях:

Погода в Mount Abu (Rajasthan, Индия) (69 км)
Погода в Gandhinagar (Gujarat, Индия) (120 км)
Погода в Ahmedabad (Gujarat, Индия) (133 км)
Погода в Surendranagar (Gujarat, Индия) (175 км)
Погода в Maharana Pratap Airport (Rajasthan, Индия) (176 км)
Погода в Barmer (Rajasthan, Индия) (191 км)
Погода в Vallabh Vidyanagar (Gujarat, Индия) (196 км)
Погода в Baroda (Gujarat, Индия) (235 км)
Погода в New Kandla (Gujarat, Индия) (242 км)
Погода в Kandla (Gujarat, Индия) (246 км)

Пояснения к столбцам:

Ветер - указаны скорость ветра в м/с - средняя за 10 мин, порывы в срок и между сроками (в фигурных скобках) и направление, откуда дует ветер: С - северный, СВ - северо-восточный, В - восточный, ЮВ - юго-восточный, Ю - южный, ЮЗ - юго-западный, З - западный, СЗ - северо-западный.
Видимость - горизонтальная дальность видимости в метрах или километрах. При видимости от 1 до 10 км при отсутствии осадков обычно наблюдается дымка, при ухудшении видимости до 1 км и менее - туман. В сухую погоду видимость может ухудшаться дымом, пылью или мглою.
Явления - указаны атмосферные явления, наблюдавшиеся в срок или в последний час перед сроком; фигурными скобками обозначены явления, наблюдавшиеся между сроками (за 1-3 часа до срока); квадратными скобками обозначены град или гололедные отложения с указанием их диаметра в мм.
Облачность - указаны через наклонную черту общая и нижняя облачность в баллах и высота нижней границы облаков в метрах; квадратными скобками обозначены формы облаков: Ci - перистые, Cs - перисто-слоистые, Cc - перисто-кучевые, Ac - высококучевые, As - высокослоистые, Sc - слоисто-кучевые, Ns - слоисто-дождевые, Cu - кучевые, Cb - кучево-дождевые. Подробнее классификацию облаков см. в Атласе облаков (PDF).
T - Температура воздуха - температура, измеренная на высоте 2 м над землей.
Td - Температура точки росы - температура, при понижении до которой содержащийся в воздухе водяной пар достигнет насыщения.
f - Относительная влажность воздуха - влажноcть воздуха, измеренная на высоте 2 м над землей.
Te - Эффективная температура - температура, которую ощущает одетый по сезону человек в тени. Характеристика душности погоды. При расчете учитывается влияние влажности воздуха и скорости ветра на теплоощущения человека.
Tes - Эффективная температура на солнце - температура, которую ощущает человек, с поправкой на солнечный нагрев. Характеристика знойности погоды. Зависит от высоты солнца над горизонтом, облачности и скорости ветра. Ночью, в пасмурную погоду, а также при ветре 12 м/с и более поправка равна нулю.
P - Атмосферное давление - приведенное к уровню моря атмосферное давление.
Po - Атмосферное давление - измеренное на уровне метеостанции атмосферное давление.
Tmin - Минимальная температура - минимум температуры воздуха на высоте 2 м над землей.
Tmax - Максимальная температура - максимум температуры воздуха на высоте 2 м над землей.
R - Количество осадков - Количество выпавших осадков за период времени, мм. При наведении курсора мыши на число - период времени, за который выпало указанное количество осадков.
R24 - Количество осадков - Количество выпавших осадков за 24 часа, мм.
S - Снежный покров - Высота снежного покрова, см. При наведении курсора мыши на число - состояние снежного покрова и степень покрытия местности в баллах.